Location: Korichintsy
(49.2000°N, 27.4833°E)
Time: 00:11:21
(UTC+00:00)

Daily predictions for brighter satellites

Satellite Brightness Start Highest point End
(mag) Time Altitude Azimuth Time Altitude Azimuth Time Altitude Azimuth
STARLINK-1234 3.2 00:00:54 10° WNW 00:03:52 41° SSW 00:05:56 17° SSE
STARLINK-1212 2.9 00:02:13 10° WNW 00:05:15 52° SSW 00:08:16 10° SE
Cosmos 1758 Rocket 4.4 00:02:13 15° SSE 00:05:32 44° E 00:09:42 10° NNE
STARLINK-1105 2.9 00:02:42 10° WNW 00:05:43 51° SSW 00:08:43 10° SE
STARLINK-1209 3.3 00:02:59 10° WNW 00:05:57 38° SW 00:06:55 29° S
STARLINK-1247 2.9 00:03:36 10° WNW 00:06:38 51° SSW 00:09:41 10° SE
ATLAS CENTAUR R/B 1.5 00:04:16 10° WNW 00:06:53 75° SW 00:12:36 10° SE
STARLINK-1227 2.9 00:04:04 10° WNW 00:07:05 50° SSW 00:10:05 10° SE
STARLINK-1208 3.6 00:03:06 10° WNW 00:07:16 85° NNE 00:11:26 10° ESE
STARLINK-1226 3.0 00:04:55 10° WNW 00:07:57 49° SSW 00:10:58 10° SE
Cosmos 1898 Rocket 4.0 00:02:46 10° NNW 00:08:07 65° ENE 00:13:23 10° SE
STARLINK-52 3.2 00:07:16 35° SSW 00:08:18 52° SSE 00:11:27 10° ENE
Meteor 1-21 Rocket 4.5 00:04:23 17° S 00:08:41 67° E 00:14:20 10° NNE
STARLINK-1215 3.0 00:05:51 10° WNW 00:08:54 49° SSW 00:11:55 10° SE
CZ-4C R/B 3.8 00:05:33 11° SSE 00:09:14 22° ESE 00:13:33 10° ENE
STARLINK-1217 3.0 00:07:38 10° WNW 00:10:39 47° SSW 00:13:39 10° SE
Cosmos 1656 4.3 00:06:54 17° S 00:11:03 48° ESE 00:16:27 10° NE
STARLINK-1229 3.0 00:08:33 10° WNW 00:11:34 46° SSW 00:14:35 10° SE
STARLINK-1271 3.6 00:08:06 10° WNW 00:12:16 89° NNE 00:16:26 10° ESE
SL-08 ROCKET BODY 4.4 00:08:22 21° SSW 00:12:22 67° WNW 00:18:13 10° N
STARLINK-1270 3.1 00:09:25 10° WNW 00:12:26 46° SSW 00:15:27 10° SE
Lacrosse 4 Rocket 3.5 00:09:45 10° NNW 00:13:42 31° NE 00:17:32 10° ESE
STARLINK-1189 3.1 00:11:16 10° WNW 00:14:17 44° SSW 00:17:16 10° SE
STARLINK-1230 4.5 00:10:18 10° WNW 00:14:22 52° N 00:18:26 10° E
STARLINK-1188 3.1 00:12:09 10° WNW 00:15:09 44° SSW 00:18:08 10° SE
STARLINK-1235 3.4 00:12:54 10° WNW 00:15:46 35° SW 00:18:38 10° SSE
STARLINK-1187 3.3 00:13:17 10° WNW 00:16:13 38° SW 00:19:08 10° SE
COSMOS 2455 3.6 00:11:39 14° WSW 00:16:34 47° NW 00:22:24 10° NNE
SJ 16-02 1.4 00:12:35 10° NNW 00:17:03 84° ENE 00:21:29 10° SSE
STARLINK-1154 3.5 00:13:05 10° WNW 00:17:15 87° SSW 00:21:24 10° ESE
STARLINK-1191 3.2 00:14:38 10° WNW 00:17:36 41° SSW 00:20:33 10° SE
STARLINK-1221 3.2 00:15:31 10° WNW 00:18:28 41° SSW 00:21:25 10° SE
Cosmos 1937 Rocket 4.1 00:13:17 10° NNW 00:18:29 58° ENE 00:23:39 10° SE
Cosmos 2084 3.6 00:15:46 23° SSW 00:18:29 73° SE 00:22:57 10° NE
STARLINK-1222 3.2 00:16:24 10° WNW 00:19:21 40° SSW 00:22:17 10° SE
STARLINK-1243 4.4 00:15:17 10° WNW 00:19:22 53° N 00:23:26 10° E
Meteor 2-10 Rocket 3.5 00:14:28 10° NNW 00:19:52 85° W 00:24:55 11° S
Starlink 7 placeholder 2.7 00:19:27 30° WNW 00:20:03 42° NNW 00:21:58 10° ENE
STARLINK-1214 3.2 00:17:20 10° WNW 00:20:16 40° SW 00:23:11 10° SE
Cosmos 1709 Rocket 4.0 00:17:09 16° S 00:22:10 86° E 00:28:20 10° N
STARLINK-1197 3.5 00:18:04 10° WNW 00:22:14 83° SSW 00:26:23 10° ESE
Cosmos 1300 4.4 00:21:09 10° NW 00:23:53 19° W 00:25:04 17° WSW
STARLINK-1236 4.4 00:20:17 10° WNW 00:24:22 54° N 00:28:27 10° E
Cosmos 921 Rocket 3.7 00:23:34 19° SW 00:26:11 41° WNW 00:30:18 10° N
STARLINK-1198 3.5 00:23:01 10° WNW 00:27:10 79° SSW 00:31:19 10° ESE
BREEZE M DEB (TANK) 2.7 00:26:49 14° W 00:28:41 44° SSW 00:33:18 10° SE
STARLINK-1199 3.5 00:28:02 10° WNW 00:32:11 74° SSW 00:36:19 10° ESE
Cosmos 1626 Rocket 4.3 00:29:36 19° SW 00:32:13 38° WNW 00:36:18 10° N
Cosmos 2219 3.4 00:28:29 10° NW 00:33:59 52° WSW 00:39:25 10° S
STARLINK-1269 4.3 00:30:14 10° WNW 00:34:20 57° NNE 00:38:26 10° E
Cosmos 1626 4.3 00:34:31 11° W 00:36:28 15° WNW 00:38:46 10° NNW
STARLINK-1210 3.5 00:33:00 10° WNW 00:37:08 70° SSW 00:41:16 10° SE
Cosmos 1980 Rocket 3.9 00:33:39 10° SSE 00:38:09 25° ESE 00:42:41 10° NE
STARLINK-60 3.5 00:36:27 12° W 00:39:20 57° NNW 00:42:31 10° ENE
STARLINK-1200 4.3 00:35:15 10° WNW 00:39:21 59° NNE 00:43:27 10° E
STARLINK-1219 3.5 00:37:59 10° WNW 00:42:07 66° SSW 00:46:13 10° SE
STARLINK-1192 4.2 00:40:14 10° WNW 00:44:21 60° NNE 00:48:28 10° E
STARLINK-1320 3.7 00:42:44 20° SSW 00:44:27 38° SE 00:47:23 10° ENE
STARLINK-1322 3.6 00:43:03 20° SSW 00:44:47 38° SE 00:47:43 10° ENE
STARLINK-1324 3.6 00:43:23 20° SSW 00:45:08 38° SE 00:48:05 10° ENE
STARLINK-1294 3.6 00:43:39 20° SSW 00:45:25 39° SE 00:48:23 10° ENE
Cosmos 192 4.5 00:41:36 16° SSW 00:45:30 69° WNW 00:50:29 10° NNE
STARLINK-1261 3.6 00:44:02 20° SSW 00:45:48 39° SE 00:48:44 10° ENE
STARLINK-1325 3.6 00:44:22 19° SSW 00:46:09 39° SE 00:49:06 10° ENE
STARLINK-1338 3.9 00:44:16 18° SSW 00:46:24 39° SE 00:49:42 10° ENE
STARLINK-1333 3.6 00:44:40 19° SSW 00:46:28 39° SE 00:49:25 10° ENE
IRS-1C 4.4 00:41:13 10° NNE 00:46:33 67° ESE 00:51:51 10° S
STARLINK-1334 3.6 00:45:00 19° SSW 00:46:48 39° SE 00:49:45 10° ENE
STARLINK-1211 3.6 00:42:58 10° WNW 00:47:03 62° SSW 00:51:09 10° SE
STARLINK-1326 3.6 00:45:20 19° SSW 00:47:08 40° SE 00:50:06 10° ENE
Cosmos 1328 3.8 00:43:45 13° S 00:47:15 85° E 00:51:16 10° N
STARLINK-1323 3.6 00:45:39 19° SSW 00:47:29 40° SSE 00:50:26 10° ENE
STARLINK-1349 3.6 00:45:58 19° SSW 00:47:49 40° SE 00:50:47 10° ENE
STARLINK-1336 3.6 00:46:20 19° SSW 00:48:11 40° SE 00:51:09 10° ENE
STARLINK-1331 3.5 00:46:37 19° SSW 00:48:29 41° SE 00:51:27 10° ENE
STARLINK-1344 3.5 00:46:57 19° SSW 00:48:50 41° SE 00:51:47 10° ENE
STARLINK-1343 3.5 00:47:17 19° SSW 00:49:10 41° SSE 00:52:08 10° ENE
STARLINK-1244 4.1 00:45:12 10° WNW 00:49:20 62° NNE 00:53:27 10° E
AQUA 4.1 00:44:43 10° N 00:49:22 54° WNW 00:53:18 14° SW
STARLINK-1346 3.5 00:47:35 19° SSW 00:49:31 42° SSE 00:52:32 10° ENE
Cosmos 2297 Rocket 2.4 00:44:12 10° NW 00:49:38 48° WSW 00:55:01 10° S
STARLINK-1328 3.5 00:47:56 19° SSW 00:49:52 42° SE 00:52:50 10° ENE
STARLINK-1354 3.5 00:48:14 19° SSW 00:50:10 42° SSE 00:53:08 10° ENE
STARLINK-1371 3.8 00:48:05 17° SSW 00:50:24 42° SE 00:53:44 10° ENE
STARLINK-1347 3.5 00:48:36 18° SSW 00:50:32 42° SSE 00:53:30 10° ENE
ERS-2 2.6 00:47:00 10° SSE 00:50:36 63° ENE 00:54:15 10° N
STARLINK-1357 3.5 00:48:53 18° SSW 00:50:50 42° SSE 00:53:49 10° ENE
CZ-4B R/B 3.9 00:45:51 10° N 00:50:50 54° WNW 00:55:16 13° SW
STARLINK-1335 3.5 00:49:14 18° SSW 00:51:11 43° SSE 00:54:10 10° ENE
STARLINK-1327 3.5 00:49:33 18° SSW 00:51:31 43° SSE 00:54:30 10° ENE
STARLINK-1340 3.5 00:49:53 18° SSW 00:51:52 43° SSE 00:54:51 10° ENE
STARLINK-1245 3.6 00:47:58 10° WNW 00:52:02 58° SSW 00:56:07 10° SE
ERBS 4.4 00:49:04 10° NW 00:52:04 30° NNE 00:55:04 10° E
STARLINK-1356 3.4 00:50:13 18° SSW 00:52:12 43° SSE 00:55:12 10° ENE
STARLINK-1341 3.8 00:50:03 17° SSW 00:52:26 43° SE 00:55:47 10° ENE
STARLINK-1345 3.4 00:50:33 18° SSW 00:52:33 44° SSE 00:55:33 10° ENE
STARLINK-1355 3.4 00:50:51 18° SSW 00:52:52 44° SSE 00:55:53 10° ENE
STARLINK-1321 3.4 00:51:10 18° SW 00:53:12 44° SSE 00:56:12 10° ENE
Cosmos 2082 3.7 00:47:39 10° NNW 00:53:22 83° WSW 00:58:59 10° SSE
STARLINK-1358 3.4 00:51:31 18° SW 00:53:34 44° SSE 00:56:34 10° ENE
STARLINK-1332 3.4 00:51:49 18° SW 00:53:52 45° SSE 00:56:52 10° ENE
STARLINK-1348 3.4 00:52:10 18° SW 00:54:14 45° SSE 00:57:14 10° ENE
STARLINK-1138 4.1 00:50:11 10° WNW 00:54:19 65° NNE 00:58:27 10° E
STARLINK-1374 3.7 00:51:59 16° SW 00:54:27 44° SE 00:57:49 10° ENE
STARLINK-1330 3.4 00:52:29 17° SW 00:54:33 45° SSE 00:57:33 10° ENE
SL-4 R/B 2.5 00:49:50 10° W 00:54:40 75° NNW 00:59:19 10° ENE
STARLINK-1363 3.4 00:52:48 17° SW 00:54:52 45° SSE 00:57:54 10° ENE
STARLINK-1337 3.4 00:53:07 17° SW 00:55:13 46° SSE 00:58:14 10° ENE
STARLINK-1342 3.4 00:53:27 17° SW 00:55:34 46° SSE 00:58:34 10° ENE
STARLINK-1364 3.4 00:53:47 17° SW 00:55:55 46° SSE 00:58:55 10° ENE
STARLINK-1376 3.3 00:54:07 17° SW 00:56:15 47° SSE 00:59:16 10° ENE
STARLINK-1360 3.3 00:54:22 17° SW 00:56:31 47° SSE 00:59:33 10° ENE
STARLINK-1339 3.7 00:54:00 16° SW 00:56:31 46° SSE 00:59:54 10° ENE
STARLINK-1361 3.3 00:54:48 17° SW 00:56:57 47° SSE 00:59:59 10° ENE
STARLINK-1203 4.1 00:52:47 10° WNW 00:56:59 67° NNE 01:01:10 10° E
STARLINK-1233 3.7 00:52:57 10° WNW 00:57:00 54° SSW 01:01:02 10° SE
STARLINK-1367 3.3 00:55:02 17° SW 00:57:13 48° SSE 01:00:17 10° ENE
Cosmos 990 Rocket 4.2 00:52:09 10° NNW 00:57:15 51° WSW 01:02:19 10° S
CBERS-1 4.1 00:52:12 10° N 00:57:18 68° WNW 01:02:06 12° SSW
STARLINK-1366 3.3 00:55:25 17° SW 00:57:36 48° SSE 01:00:38 10° ENE
Cosmos 540 Rocket 4.3 00:53:15 10° S 00:58:10 47° ESE 01:03:05 10° NNE
STARLINK-1377 3.6 00:56:00 16° SW 00:58:36 48° SSE 01:01:59 10° ENE
STARLINK-1143 4.0 00:55:10 10° WNW 00:59:19 67° NNE 01:03:27 10° E
SL-16 R/B 3.5 00:56:01 13° SSW 01:00:32 28° W 01:05:44 10° NW
STARLINK-1353 3.6 00:57:56 15° SW 01:00:35 49° SSE 01:03:58 10° ENE
ATLAS CENTAUR R/B 3.2 00:58:07 10° W 01:01:34 23° NW 01:04:52 10° NNE
STARLINK-1204 3.8 00:57:57 10° WNW 01:01:59 50° SSW 01:05:59 10° SE
Meteor 1-11 4.5 00:56:49 10° S 01:02:26 72° E 01:08:01 10° NNE
STARLINK-1375 3.6 00:59:43 15° SW 01:02:27 50° SSE 01:05:51 10° ENE
Cosmos 2074 Rocket 4.3 00:57:12 10° S 01:03:28 74° E 01:09:46 10° NNE
STARLINK-1241 4.0 01:00:09 10° WNW 01:04:18 70° NNE 01:08:26 10° ESE
STARLINK-1350 3.5 01:01:59 14° SW 01:04:48 53° SSE 01:08:13 10° ENE
Cosmos 1825 Rocket 3.8 01:01:14 12° SSW 01:05:07 56° WNW 01:09:24 10° N
BREEZE-M R/B 2.2 01:01:13 10° WSW 01:05:15 71° SSE 01:07:50 10° E
FALCON 9 DEB 3.1 01:02:07 12° WSW 01:05:20 86° NNW 01:08:49 10° ENE
Cosmos 2263 Rocket 3.9 01:00:07 10° NNW 01:05:20 37° NE 01:10:30 10° ESE
CZ-2D R/B 4.3 01:01:28 10° NNE 01:05:27 49° E 01:09:32 10° S
Landsat 5 4.5 01:01:12 10° SSE 01:05:35 55° ENE 01:10:02 10° N
Cosmos 1455 3.2 01:03:14 10° NNW 01:06:28 28° W 01:09:23 12° SSW
STARLINK-1238 3.8 01:02:55 10° WNW 01:06:55 47° SW 01:10:53 10° SE
STARLINK-1352 3.5 01:04:09 14° SW 01:07:04 55° SSE 01:10:32 10° ENE
STARLINK-29 3.3 01:04:48 10° W 01:07:58 61° NNW 01:11:08 10° ENE
ATLAS 3B R/B 4.1 01:04:42 10° WNW 01:08:39 16° WSW 01:12:40 10° SW
Cosmos 372 Rocket 4.3 01:03:56 10° NNW 01:09:04 70° ENE 01:14:11 10° SSE
STARLINK-1368 3.4 01:06:14 13° SW 01:09:14 57° SSE 01:12:42 10° ENE
STARLINK-1239 3.9 01:05:08 10° WNW 01:09:17 73° NNE 01:13:26 10° ESE
IRS-1D 3.9 01:04:51 10° N 01:10:04 55° WNW 01:15:12 10° SW
Meteor 1-28 Rocket 3.2 01:06:18 10° SSE 01:10:05 84° WSW 01:13:53 10° NNW
Cosmos 841 Rocket 3.9 01:04:57 10° S 01:10:08 65° ESE 01:15:20 10° NNE
BREEZE-M DEB (TANK) 2.2 01:09:30 14° SW 01:11:03 48° SSE 01:14:19 10° E
STARLINK-1369 3.4 01:08:12 13° SW 01:11:15 59° SSE 01:14:44 10° ENE
STARLINK-1201 3.9 01:07:56 10° WNW 01:11:53 44° SW 01:15:49 10° SE
GP-B 3.9 01:08:05 10° NNW 01:12:08 35° W 01:16:10 10° SW
STARLINK-1372 3.4 01:10:25 12° SW 01:13:35 61° SSE 01:17:05 10° ENE
STARLINK-1240 3.8 01:10:07 10° WNW 01:14:17 76° NNE 01:18:26 10° ESE
Cosmos 2184 Rocket 4.1 01:08:42 10° S 01:14:54 85° E 01:21:06 10° N
COBE Rocket 3.9 01:10:45 10° S 01:15:40 76° WSW 01:20:47 10° NNW
STARLINK-1378 3.3 01:12:32 12° SW 01:15:47 63° SSE 01:19:18 10° ENE
BREEZE-M DEB (TANK) 1.2 01:13:40 10° W 01:15:58 79° N 01:18:52 10° E
Cosmos-2242 3.7 01:12:14 10° NNW 01:16:07 35° W 01:19:58 10° SSW
STARLINK-1329 3.3 01:12:59 11° SW 01:16:16 64° SSE 01:19:48 10° ENE
STARLINK-1206 4.0 01:12:56 10° WNW 01:16:51 41° SW 01:20:44 10° SSE
STARLINK-1365 3.3 01:13:46 11° SW 01:17:06 67° SSE 01:20:38 10° ENE
STARLINK-1379 3.3 01:14:39 11° SW 01:18:00 65° SSE 01:21:31 10° ENE
Cosmos 1869 4.4 01:14:18 10° N 01:18:06 47° ENE 01:21:50 10° SSE
Cosmos 2221 3.2 01:13:54 10° N 01:18:10 57° ENE 01:22:26 10° SSE
STARLINK-1362 3.3 01:15:10 11° SW 01:18:33 66° SSE 01:22:05 10° ENE
Cosmos 1400 Rocket 2.9 01:14:32 10° NNW 01:18:39 69° W 01:22:44 10° S
STARLINK-1216 3.8 01:15:06 10° WNW 01:19:16 80° NNE 01:23:25 10° ESE
STARLINK-1373 3.3 01:17:22 10° SW 01:20:50 68° SSE 01:24:22 10° ENE
SL-08 R/B 3.6 01:17:12 10° S 01:21:43 46° W 01:26:13 10° NNW
STARLINK-1205 4.1 01:17:56 10° WNW 01:21:48 38° SW 01:25:38 10° SSE
STARLINK-1390 3.3 01:19:28 10° SW 01:23:00 70° SSE 01:26:32 10° ENE
RESURS DK-1 4.5 01:20:48 10° W 01:23:41 18° NW 01:26:34 10° N
STARLINK-1237 3.7 01:20:05 10° WNW 01:24:15 83° NNE 01:28:24 10° ESE
IRS-P3 4.4 01:19:39 10° N 01:24:54 57° WNW 01:30:06 10° SW
Cosmos 2227 Rocket 3.0 01:20:06 10° NW 01:25:00 31° WSW 01:29:52 10° SSW
CZ-2D R/B 3.5 01:21:03 10° N 01:25:14 24° WNW 01:29:22 10° WSW
STARLINK-1218 4.2 01:22:56 10° WNW 01:26:44 35° SW 01:30:31 10° SSE
CZ-4C R/B 3.0 01:23:43 10° SSE 01:27:19 84° WSW 01:30:59 10° NNW
ADEOS II 2.5 01:23:16 10° N 01:28:20 49° WNW 01:33:23 10° SW
Cosmos 1763 Rocket 3.8 01:24:02 10° SW 01:29:03 53° WNW 01:34:02 10° NNE
STARLINK-1202 3.7 01:25:04 10° WNW 01:29:15 87° NNE 01:33:24 10° ESE
Cosmos 1697 Rocket 2.8 01:23:41 10° SSW 01:29:22 81° WNW 01:35:05 10° NNE
Cosmos 2150 Rocket 4.2 01:25:20 10° NNW 01:30:34 80° ENE 01:35:44 10° SSE
Cosmos 1703 4.4 01:27:04 10° SW 01:30:36 30° WNW 01:34:09 10° N
STARLINK-1254 4.3 01:27:57 10° WNW 01:31:41 33° SW 01:35:25 10° SSE
Resurs 1-4 Rocket 3.8 01:31:03 10° N 01:34:53 21° WNW 01:38:42 10° WSW
ATLAS 2AS CENTAUR R/B 4.4 01:27:51 10° W 01:34:54 32° NNW 01:41:44 10° NE
SL-16 R/B 4.4 01:31:14 10° SSE 01:35:31 22° ESE 01:39:47 10° NE
